Regional Weather Roundup
Issued by NWS

Home | Current Version | Previous Version | Graphics & Text | Print | Product List | Glossary On
Versions: 1 2 3 4 5 6 7 8 9 10 11 12 13 14 15 16 17 18 19 20 21 22 23 24 25 26 27 28 29 30 31 32 33 34 35 36 37 38 39 40 41 42 43 44 45 46 47 48 49 50
000
ASUS45 KBOU 270107
RWRCO

WEATHER ROUNDUP FOR COLORADO
NATIONAL WEATHER SERVICE DENVER/BOULDER CO
700 PM MDT TUE AUG 26 2014

NOTE: "FAIR" INDICATES FEW OR NO CLOUDS BELOW 12000 FEET WITH NO
SIGNIFICANT WEATHER AND/OR OBSTRUCTIONS TO VISIBILITY.

COZ001>005-013-030-031-270200-
...NORTHWEST COLORADO...

CITY           SKY/WX    TMP DP  RH WIND       PRES   REMARKS
CRAIG          MOCLDY    69  48  47 E10       30.22F
HAYDEN         CLOUDY    63  45  51 SE10      30.26S
MEEKER         MOCLDY    67  49  52 SE5       30.24F
MOUNT WERNER   NOT AVBL
STEAMBOAT SPGS MOCLDY    61  49  66 SE3       30.29S
WALDEN         MOCLDY    57  41  54 SE6       30.35F
$$

COZ006>008-011-270200-
...WEST CENTRAL VALLEYS...

CITY           SKY/WX    TMP DP  RH WIND       PRES   REMARKS
GRAND JUNCTION MOCLDY    74  46  36 S3        30.14R
MONTROSE       CLOUDY    66  54  65 SE14      30.24F
EAGLE          MOCLDY    63  52  67 VRB7      30.30F
RIFLE          CLOUDY    68  54  60 CALM      30.20F
DELTA          RAIN      70  53  54 E5        30.19S
NUCLA          RAIN      59  52  77 SW12G29   30.30R
$$

COZ017>023-064>068-270200-
...SOUTHWEST COLORADO...

CITY           SKY/WX    TMP DP  RH WIND       PRES   REMARKS
DURANGO        CLOUDY    70  43  37 W7        30.24S
CORTEZ         LGT RAIN  58  55  90 W21G30    30.25R
PAGOSA SPRINGS CLOUDY    67  40  37 CALM      30.32F
TELLURIDE      DRIZZLE   52  50  93 SW6       30.44R
WOLF CREEK PAS CLOUDY    45  39  81 SW14G20   30.59S
$$

COZ009-010-012-014-032>034-037-058>063-270200-
...CENTRAL COLORADO...

CITY           SKY/WX    TMP DP  RH WIND       PRES   REMARKS
ASPEN          CLOUDY    59  48  67 SE7       30.35F
BUENA VISTA    CLOUDY    56  48  73 S8G17     30.38R
COPPER MTN     HVY RAIN  45  41  87 E5        30.62S VSB<1/4
BERTHOUD PASS  LGT RAIN  34  34 100 MISG      30.67S
COTTONWOOD PAS CLOUDY    54  46  76 SE14      30.47R
GUNNISON       CLOUDY    55  46  71 SE3       30.36R
KREMMLING      CLOUDY    55  50  82 CALM      30.38S
LEADVILLE      CLOUDY    50  41  71 N13G21    30.46R
MONARCH PASS   FOG       43  41  93 E12       30.70R VSB<1/4
SALIDA         CLOUDY    58  53  84 S6        30.43S
SUNLIGHT       MOCLDY    48  43  81 CALM      30.53F
WILKERSON PASS NOT AVBL
$$

COZ069>075-270200-
...SAN LUIS VALLEY/SANGRE DE CRISTO MOUNTAINS...

CITY           SKY/WX    TMP DP  RH WIND       PRES   REMARKS
ALAMOSA        CLOUDY    58  52  80 SE13      30.34F
LA VETA PASS   NOT AVBL
SAGUACHE       CLOUDY    57  50  77 S14       30.39R
$$

COZ035-036-038>040-270200-
...NORTHERN COLORADO FRONT RANGE...

CITY           SKY/WX    TMP DP  RH WIND       PRES   REMARKS
DENVER INTL AP CLOUDY    67  58  72 E8        30.21R
DMNS CITY PARK   N/A     66  58  76 N1        30.20F
AURORA         CLOUDY    66  57  73 N7        30.23R
FRONT RANGE AP NOT AVBL
ERIE MUNI ARPT CLOUDY    69  55  59 CALM      30.20R
BOULDER MUN AP LGT RAIN  66  59  77 SW9       30.21R
CENTENNIAL     CLOUDY    68  52  56 N5        30.24R
BROOMFIELD     CLOUDY    70  54  56 NW7       30.24R
FORT COLLINS   MOCLDY    72  54  53 W5        30.18R
LONGMONT       MOCLDY    70  59  68 W5        30.20F
$$

COZ041-046-047-076>085-087-088-270200-
...PIKES PEAK/PALMER DIVIDE AND SOUTHERN FOOTHILLS...

CITY           SKY/WX    TMP DP  RH WIND       PRES   REMARKS
COLO. SPRINGS  CLOUDY    67  54  63 SW5       30.26S
A. F. ACADEMY  CLOUDY    64  54  68 W2        30.28R
ELLICOTT       CLOUDY    68  56  65 S12G17    30.24S
FALCON         CLOUDY    64  55  72 W3        30.31R
FORT CARSON    CLOUDY    68  54  59 SW6       30.23S
LIMON          CLOUDY    70  59  68 SE8       30.21R
MONUMENT HILL  CLOUDY    61  54  77 CALM      30.30S
TRINIDAD       CLOUDY    65  58  78 E7        30.24
$$

COZ042>045-048>051-090-091-270200-
...NORTHEAST COLORADO...

CITY           SKY/WX    TMP DP  RH WIND       PRES   REMARKS
GREELEY ARPT   MOCLDY    72  55  56 S3        30.16S
AKRON          MOCLDY    73  62  68 S10       30.17R
BURLINGTON     CLOUDY    77  61  57 SE8       30.13S
WRAY             N/A     79  61  54 SE10      30.11S
STERLING       MOCLDY    75  68  78 SE3       30.13R
HOLYOKE        PTCLDY    73  64  73 E6        30.13R
FORT MORGAN    CLOUDY    65  60  85 W6        30.18R
$$

COZ086-089-092>099-270200-
...SOUTHEAST COLORADO...

CITY           SKY/WX    TMP DP  RH WIND       PRES   REMARKS
PUEBLO         CLOUDY    74  58  57 SE9       30.15F
LA JUNTA       CLOUDY    66  63  90 SE12      30.15F
LAMAR          RAIN      67  65  93 W12       30.14F FOG
SPRINGFIELD      N/A     64  63  96 W15       30.18R
$$


USA.gov is the U.S. government's official web portal to all federal, state and local government web resources and services.